Wind_Speed
57 56 55 56 55 54 54 52 51 47 42 38 38 38 40 38 39 39 38 41 42 44 43 42 42 42 43 42 42 39 37 35 33
60 57 57 56 53 53 52 50 49 44 39 37 37 42 42 44 45 40 41 41 42 45 42 41 41 44 45 42 40 40 36 35 35
61 59 57 53 51 51 50 47 44 40 34 34 39 41 43 44 43 40 40 43 45 45 43 45 45 45 45 42 39 39 39 38 39
57 55 55 51 51 49 47 43 40 36 36 32 38 42 46 45 45 47 42 44 45 44 45 46 46 45 44 43 41 42 43 42 43
52 49 47 49 49 46 43 39 37 33 31 39 45 47 49 47 48 44 44 42 47 50 48 47 48 47 44 43 43 45 46 46 47
42 43 45 48 45 41 38 36 36 36 37 45 47 47 49 51 48 51 48 48 50 50 50 49 49 48 45 43 45 48 50 51 51
38 42 44 43 39 38 38 38 42 41 39 40 41 46 50 50 49 50 47 45 47 51 52 52 48 47 46 45 44 48 52 54 56
39 41 42 40 38 38 38 39 45 49 42 40 40 45 48 50 48 48 49 52 53 55 54 54 50 48 47 47 48 50 53 57 60
40 40 39 39 37 38 38 40 41 47 47 48 45 49 54 51 51 53 57 59 62 59 60 60 56 54 52 51 52 53 56 59 62
40 40 39 39 37 38 40 45 47 51 52 56 54 53 55 57 60 59 57 63 64 63 64 66 61 59 59 58 55 58 60 61 63
40 41 40 39 38 39 40 43 46 47 51 58 61 61 62 63 64 63 65 66 68 71 70 63 62 63 66 63 61 61 63 67 68
40 42 41 41 40 40 43 47 50 50 54 58 63 66 68 70 71 71 73 74 76 74 65 66 68 69 67 67 67 65 65 66 68
35 39 42 42 43 42 44 45 51 56 58 59 58 66 72 75 75 76 75 69 65 67 69 72 73 71 69 68 67 69 71 72 73
34 35 39 42 43 44 47 50 51 52 55 58 60 63 63 64 63 63 63 66 69 71 73 71 71 73 74 74 74 76 77 79 81
36 37 37 39 41 42 43 46 47 49 52 55 56 59 60 60 61 65 69 72 73 72 73 75 76 78 79 81 83 84 85 87 88
38 42 43 43 43 44 44 46 48 50 50 52 56 59 63 66 69 71 72 75 74 77 80 82 84 85 87 88 89 91 92 94 94
40 42 43 44 46 48 50 51 53 56 58 59 60 63 70 71 73 74 74 76 79 83 85 87 90 91 93 94 97 98 100 102 104
42 43 46 47 47 50 52 55 57 60 64 64 63 65 68 71 74 78 82 84 86 89 91 93 96 99 100 102 104 106 108 109 111
46 47 48 49 50 53 55 58 60 62 66 70 73 74 74 75 72 78 83 88 93 96 97 98 100 102 106 108 110 113 116 117 121
50 51 52 53 55 57 59 61 62 64 67 69 73 78 82 84 83 78 82 87 90 94 99 104 107 110 113 116 119 121 119 119 119
Wind_Direction
289 283 282 282 284 284 283 278 270 262 257 253 252 259 264 266 270 272 275 279 284 287 290 290 285 283 282 279 277 277 272 261 260
285 283 282 283 283 283 282 274 266 259 252 248 250 257 266 271 272 272 278 281 283 288 289 290 287 285 282 278 277 272 261 259 261
282 283 281 282 282 282 277 267 259 253 247 252 263 263 265 270 272 274 277 280 283 287 288 290 291 289 282 277 273 266 261 261 262
283 281 280 280 280 280 272 261 255 245 245 265 263 263 266 267 279 272 273 281 282 289 290 291 295 292 283 273 267 261 259 260 263
281 280 278 279 280 276 267 256 249 244 247 257 266 265 267 276 278 272 276 274 283 285 290 293 296 292 283 273 263 260 259 260 261
280 278 279 281 278 273 264 252 242 242 255 257 259 266 273 274 273 271 274 276 281 285 291 294 296 294 283 275 265 259 258 258 259
278 280 281 278 272 266 258 248 239 243 253 258 266 266 266 272 273 272 274 276 282 286 289 292 294 292 284 277 273 265 261 260 261
279 280 279 273 267 261 256 251 242 245 253 259 266 270 269 270 269 270 277 280 282 285 289 291 289 290 285 279 275 271 266 263 263
280 279 278 274 270 262 259 252 250 246 251 252 263 268 270 272 273 276 280 281 283 284 285 290 287 286 286 281 276 271 268 266 266
284 281 278 273 268 261 257 252 248 250 250 251 261 268 271 271 274 279 282 283 284 283 286 288 284 286 285 284 279 275 270 268 267
288 282 278 273 268 263 259 257 256 258 258 256 257 262 267 273 272 275 278 279 282 284 286 284 282 284 285 284 281 277 272 269 268
290 283 278 275 269 266 260 256 258 262 263 263 262 262 266 270 270 273 277 279 284 283 282 282 284 284 283 281 280 278 275 273 271
293 290 283 280 274 267 267 263 258 261 264 266 269 267 264 267 270 274 278 279 279 281 282 284 283 283 282 280 277 276 276 275 274
290 292 288 287 282 276 268 265 266 268 269 270 271 272 274 275 275 277 279 281 281 282 282 282 282 281 279 278 278 276 275 274 274
292 289 289 289 287 283 280 277 274 272 271 272 272 273 274 276 279 280 280 281 283 280 279 280 280 279 278 278 278 277 276 277 277
297 296 294 290 286 284 282 280 279 278 276 274 275 277 279 280 280 281 281 282 281 281 282 281 280 279 279 278 277 277 276 276 276
301 300 296 292 290 288 286 284 283 282 282 281 282 281 282 282 282 283 282 281 280 280 281 281 280 280 279 280 281 281 280 281 281
299 298 296 293 291 289 289 287 286 285 285 285 282 280 280 281 284 285 285 285 285 284 284 285 285 284 283 283 282 281 280 279 279
294 293 291 290 291 290 288 289 289 288 287 288 288 286 282 279 279 282 283 286 285 284 284 283 283 282 282 281 281 281 282 282 280
290 291 290 290 288 287 287 288 287 286 287 288 288 289 289 289 288 284 284 285 285 283 282 282 283 282 282 281 282 282 282 281 280
Height
10844 10841 10838 10835 10833 10829 10826 10823 10820 10820 10821 10822 10823 10824 10824 10824 10824 10824 10823 10822 10820 10818 10817 10815 10812 10810 10808 10807 10805 10804 10804 10805 10805
10831 10828 10826 10824 10821 10818 10814 10811 10810 10811 10812 10814 10816 10817 10817 10817 10817 10816 10815 10814 10812 10809 10808 10806 10804 10802 10800 10798 10797 10796 10796 10796 10796
10819 10817 10815 10812 10809 10806 10803 10800 10800 10802 10805 10808 10809 10810 10809 10810 10808 10806 10805 10805 10803 10801 10799 10797 10795 10793 10791 10789 10788 10788 10788 10787 10787
10806 10804 10803 10801 10798 10795 10792 10791 10792 10794 10798 10800 10800 10800 10801 10801 10799 10797 10796 10795 10794 10791 10789 10787 10785 10783 10781 10780 10779 10779 10778 10778 10778
10794 10793 10792 10790 10787 10784 10783 10783 10785 10788 10790 10792 10792 10792 10792 10791 10789 10787 10786 10785 10783 10782 10780 10778 10775 10772 10770 10769 10768 10768 10768 10768 10767
10785 10784 10783 10781 10778 10776 10776 10777 10779 10780 10781 10782 10783 10783 10782 10781 10779 10777 10776 10776 10775 10772 10771 10768 10765 10762 10760 10758 10757 10757 10756 10756 10755
10775 10775 10772 10770 10767 10766 10766 10768 10770 10772 10774 10774 10773 10773 10773 10771 10769 10766 10766 10766 10764 10762 10760 10758 10755 10752 10750 10748 10747 10746 10745 10745 10744
10766 10764 10762 10759 10757 10756 10757 10759 10761 10762 10764 10765 10765 10764 10763 10761 10758 10756 10755 10754 10753 10751 10749 10747 10745 10742 10741 10738 10737 10735 10734 10732 10731
10757 10754 10752 10751 10749 10749 10749 10750 10752 10753 10754 10754 10754 10754 10752 10749 10747 10745 10743 10742 10741 10740 10737 10734 10732 10730 10729 10727 10725 10722 10721 10719 10718
10750 10747 10744 10742 10741 10740 10740 10741 10742 10743 10743 10743 10743 10742 10740 10738 10736 10734 10731 10730 10727 10726 10724 10722 10719 10716 10715 10713 10711 10708 10706 10704 10703
10742 10739 10736 10734 10732 10731 10731 10731 10732 10732 10733 10732 10731 10730 10728 10726 10725 10723 10720 10717 10714 10711 10708 10706 10705 10702 10699 10696 10694 10691 10689 10687 10685
10734 10731 10728 10726 10724 10723 10722 10722 10722 10722 10721 10721 10718 10717 10714 10712 10711 10710 10708 10703 10698 10696 10692 10689 10688 10686 10684 10681 10677 10673 10669 10667 10666
10725 10723 10721 10718 10716 10714 10713 10712 10711 10711 10710 10708 10706 10704 10702 10699 10697 10697 10693 10689 10686 10681 10677 10674 10670 10667 10664 10661 10659 10655 10651 10648 10646
10717 10714 10712 10711 10708 10706 10704 10702 10701 10700 10699 10697 10694 10689 10687 10684 10683 10681 10677 10673 10669 10666 10661 10656 10653 10649 10645 10640 10639 10635 10631 10628 10625
10708 10705 10703 10701 10699 10696 10695 10692 10691 10690 10687 10684 10681 10676 10673 10670 10671 10666 10661 10656 10652 10647 10643 10640 10635 10629 10625 10619 10614 10612 10609 10606 10602
10699 10697 10693 10691 10689 10686 10684 10681 10678 10675 10675 10673 10670 10666 10661 10656 10653 10649 10645 10639 10633 10628 10623 10618 10613 10607 10602 10597 10592 10588 10585 10581 10579
10692 10688 10684 10681 10678 10675 10672 10669 10666 10661 10659 10659 10657 10654 10645 10641 10635 10632 10627 10622 10617 10610 10602 10596 10589 10582 10577 10572 10565 10561 10556 10553 10547
10683 10679 10675 10671 10668 10664 10661 10658 10655 10649 10642 10640 10642 10639 10635 10631 10620 10613 10605 10600 10594 10585 10577 10569 10561 10552 10547 10542 10536 10530 10527 10525 10522
10674 10669 10665 10660 10657 10653 10649 10645 10641 10637 10631 10623 10617 10615 10615 10614 10618 10604 10590 10579 10570 10560 10552 10544 10536 10527 10520 10511 10505 10500 10495 10491 10481
10664 10658 10653 10648 10644 10639 10634 10629 10624 10619 10613 10607 10601 10592 10584 10577 10578 10585 10573 10563 10551 10541 10530 10518 10507 10497 10486 10479 10472 10464 10458 10449 10444